{"data":{"norad_id":60442,"intl_designator":"2024-144T","name":"STARLINK-32252","alt_names":[],"object_type":"PAYLOAD","status":"ACTIVE","operator":null,"country":"US","launch_date":"2024-08-12","launch_site_code":"AFETR","launch_vehicle":null,"mission":null,"orbit_class":"UNKNOWN","rcs_meters":null,"size_class":null,"mass_kg":null,"dimensions":null,"purposes":["comms"],"wikipedia_slug":null,"has_3d_model":false,"image_url":null,"decayed_at":null,"tle_current":{"epoch":"2026-05-24T21:55:36.323040Z","epoch_age_seconds":92953,"freshness":"FRESH","line1":"1 60442U 24144T   26144.91361485 -.00002584  00000+0 -65405-4 0  9999","line2":"2 60442  53.1597 222.0659 0000491 145.0292 215.0743 15.34396731101030","mean_motion":15.34396731,"eccentricity":4.91e-5,"inclination_deg":53.1597,"raan_deg":222.0659,"arg_perigee_deg":145.0292,"mean_anomaly_deg":215.0743,"bstar":-6.5405e-5,"rev_number":10103,"period_min":93.847958022012,"perigee_km":462.37707064841,"apogee_km":463.04884211412,"semimajor_km":6840.8499563813,"source":"CELESTRAK","updated_at":"2026-05-25T13:38:19.276353Z"}}}